LEMD Weather Reports


Display with metric or nautical units.
time (UTC)temp
F
wind
direction
speed
MPH
gust
MPH
rain 1hr
in
rain 24hr
in
rain mn
in
humidity
%
barometer
mb
20260902191503 93 210 6.0 0.0 0.00 0.00 0.00 18 1020.0
20260902190003 95 210 6.0 0.0 0.00 0.00 0.00 17 1020.0
20260902181503 95 210 3.0 0.0 0.00 0.00 0.00 17 1020.0
20260902180006 95 260 7.0 0.0 0.00 0.00 0.00 19 1020.0
20260902174503 95 260 7.0 0.0 0.00 0.00 0.00 19 1020.0
20260902173004 97 260 6.0 0.0 0.00 0.00 0.00 18 1021.0
20260902170004 95 220 6.0 0.0 0.00 0.00 0.00 19 1021.0
20260902164503 95 220 6.0 0.0 0.00 0.00 0.00 19 1021.0
20260902160005 95 240 8.0 0.0 0.00 0.00 0.00 19 1021.0
20260902154503 95 240 8.0 0.0 0.00 0.00 0.00 19 1021.0
20260902153003 95 250 5.0 0.0 0.00 0.00 0.00 19 1021.0
20260902150003 95 240 8.0 0.0 0.00 0.00 0.00 19 1022.0
20260902143004 93 250 7.0 0.0 0.00 0.00 0.00 20 1022.0
20260902124504 91 160 3.0 0.0 0.00 0.00 0.00 26 1023.0
20260902114503 86 260 2.0 0.0 0.00 0.00 0.00 33 1023.0
20260902111503 84 280 2.0 0.0 0.00 0.00 0.00 35 1023.0
20260902103004 79 210 2.0 0.0 0.00 0.00 0.00 47 1023.0
20260902090005 70 330 6.0 0.0 0.00 0.00 0.00 40 1023.0
20260902073003 63 0 2.0 0.0 0.00 0.00 0.00 45 1022.0
20260902071503 63 0 2.0 0.0 0.00 0.00 0.00 45 1022.0
20260902070005 59 330 5.0 0.0 0.00 0.00 0.00 51 1022.0
20260902064504 59 330 5.0 0.0 0.00 0.00 0.00 51 1022.0
20260902054503 63 350 5.0 0.0 0.00 0.00 0.00 45 1021.0
20260902050004 63 350 5.0 0.0 0.00 0.00 0.00 45 1021.0
20260902043004 63 360 3.0 0.0 0.00 0.00 0.00 45 1021.0
20260902040003 61 0 1.0 0.0 0.00 0.00 0.00 48 1021.0
20260902034503 61 0 1.0 0.0 0.00 0.00 0.00 48 1021.0
20260902033003 64 360 3.0 0.0 0.00 0.00 0.00 42 1021.0
20260902031503 64 360 3.0 0.0 0.00 0.00 0.00 42 1021.0
20260902024504 64 330 7.0 0.0 0.00 0.00 0.00 42 1021.0
20260902023003 66 350 5.0 0.0 0.00 0.00 0.00 39 1021.0
20260902021502 66 350 5.0 0.0 0.00 0.00 0.00 39 1021.0
20260902020003 66 20 5.0 0.0 0.00 0.00 0.00 39 1020.0
20260902014503 66 20 5.0 0.0 0.00 0.00 0.00 39 1020.0
20260902003004 70 0 2.0 0.0 0.00 0.00 0.00 32 1021.0
20260902001503 70 0 2.0 0.0 0.00 0.00 0.00 32 1021.0
20260902000004 70 0 1.0 0.0 0.00 0.00 0.00 30 1020.0
20260901233003 75 340 2.0 0.0 0.00 0.00 0.00 25 1020.0
20260901230003 75 340 3.0 0.0 0.00 0.00 0.00 25 1020.0
20260901213003 79 0 1.0 0.0 0.00 0.00 0.00 22 1019.0
20260901210004 82 0 2.0 0.0 0.00 0.00 0.00 20 1019.0
20260901204503 82 0 2.0 0.0 0.00 0.00 0.00 20 1019.0
20260901203003 84 280 3.0 0.0 0.00 0.00 0.00 18 1018.0
20260901200004 90 270 6.0 0.0 0.00 0.00 0.00 17 1018.0